TimeEDT,TemperatureF,Dew PointF,Humidity,Sea Level PressureIn,VisibilityMPH,Wind Direction,Wind SpeedMPH,Gust SpeedMPH,PrecipitationIn,Events,Conditions,WindDirDegrees,DateUTC
12:53 AM,75.9,70.0,82,29.91,10.0,Calm,Calm,-,N/A,,Scattered Clouds,0,2013-10-07 04:53:00
1:53 AM,77.0,70.0,79,29.90,10.0,Calm,Calm,-,N/A,,Mostly Cloudy,0,2013-10-07 05:53:00
2:53 AM,77.0,70.0,79,29.89,10.0,Calm,Calm,-,N/A,,Scattered Clouds,0,2013-10-07 06:53:00
3:53 AM,77.0,70.0,79,29.88,10.0,Calm,Calm,-,N/A,,Scattered Clouds,0,2013-10-07 07:53:00
4:53 AM,75.9,70.0,82,29.88,10.0,Calm,Calm,-,N/A,,Scattered Clouds,0,2013-10-07 08:53:00
5:53 AM,77.0,71.1,82,29.88,10.0,Calm,Calm,-,N/A,,Scattered Clouds,0,2013-10-07 09:53:00
6:53 AM,77.0,72.0,84,29.89,10.0,SW,3.5,-,N/A,,Scattered Clouds,220,2013-10-07 10:53:00
7:53 AM,79.0,73.0,82,29.91,10.0,Calm,Calm,-,N/A,,Scattered Clouds,0,2013-10-07 11:53:00
8:53 AM,81.0,73.0,77,29.91,10.0,SSW,8.1,-,N/A,,Scattered Clouds,200,2013-10-07 12:53:00
9:53 AM,82.9,73.0,72,29.92,10.0,SSW,6.9,-,N/A,,Mostly Cloudy,210,2013-10-07 13:53:00
10:53 AM,84.9,72.0,65,29.92,10.0,SW,11.5,16.1,N/A,,Mostly Cloudy,230,2013-10-07 14:53:00
11:53 AM,87.1,72.0,61,29.91,10.0,SSW,10.4,17.3,N/A,,Mostly Cloudy,210,2013-10-07 15:53:00
12:53 PM,88.0,71.1,57,29.88,10.0,South,10.4,-,N/A,,Mostly Cloudy,190,2013-10-07 16:53:00
1:53 PM,88.0,71.1,57,29.86,10.0,WSW,10.4,-,N/A,,Mostly Cloudy,240,2013-10-07 17:53:00
2:53 PM,91.0,71.1,52,29.84,10.0,SW,15.0,20.7,N/A,,Mostly Cloudy,230,2013-10-07 18:53:00
3:53 PM,80.1,70.0,71,29.84,10.0,West,5.8,-,0.01,Rain,Light Rain,260,2013-10-07 19:53:00
4:53 PM,84.0,73.0,69,29.85,10.0,South,5.8,-,0.00,,Mostly Cloudy,170,2013-10-07 20:53:00
5:53 PM,86.0,72.0,63,29.85,10.0,WSW,11.5,-,N/A,,Mostly Cloudy,250,2013-10-07 21:53:00
6:53 PM,84.0,72.0,67,29.86,10.0,West,13.8,19.6,N/A,,Mostly Cloudy,270,2013-10-07 22:53:00
7:53 PM,81.0,72.0,74,29.88,10.0,WNW,3.5,-,0.00,,Overcast,290,2013-10-07 23:53:00
8:53 PM,80.1,73.0,79,29.90,10.0,Calm,Calm,-,0.00,,Overcast,0,2013-10-08 00:53:00
9:53 PM,81.0,73.0,77,29.91,10.0,Calm,Calm,-,N/A,,Mostly Cloudy,0,2013-10-08 01:53:00
10:53 PM,80.1,73.0,79,29.91,10.0,South,3.5,-,N/A,,Mostly Cloudy,190,2013-10-08 02:53:00
11:53 PM,79.0,73.0,82,29.89,10.0,South,4.6,-,N/A,,Mostly Cloudy,170,2013-10-08 03:53:00